Time,TemperatureF,DewpointF,PressureIn,WindDirection,WindDirectionDegrees,WindSpeedMPH,WindSpeedGustMPH,Humidity,HourlyPrecipIn,Conditions,Clouds,dailyrainin,SoftwareType,DateUTC
2017-03-24 00:01:00,28.2,9.0,30.43,SSE,158,13.0,-999.0,45,0.00,,,0.00,,2017-03-24 04:01:00,
2017-03-24 00:06:00,28.2,9.0,30.42,SSE,158,13.0,-999.0,45,0.00,,,0.00,,2017-03-24 04:06:00,
2017-03-24 00:12:00,28.2,9.0,30.42,SSE,158,14.0,-999.0,45,0.00,,,0.00,,2017-03-24 04:12:00,
2017-03-24 00:17:00,28.2,9.0,30.41,South,180,16.0,-999.0,44,0.00,,,0.00,,2017-03-24 04:17:00,
2017-03-24 00:27:00,28.2,9.0,30.41,South,180,10.0,-999.0,44,0.00,,,0.00,,2017-03-24 04:27:00,
2017-03-24 00:33:00,28.3,9.0,30.41,SSE,158,16.0,-999.0,44,0.00,,,0.00,,2017-03-24 04:33:00,
2017-03-24 00:38:00,28.3,9.0,30.41,SSE,158,10.0,-999.0,44,0.00,,,0.00,,2017-03-24 04:38:00,
2017-03-24 00:44:00,28.3,9.0,30.41,SSE,158,9.0,-999.0,44,0.00,,,0.00,,2017-03-24 04:44:00,
2017-03-24 00:49:00,28.6,9.0,30.41,SSE,158,10.0,-999.0,45,0.00,,,0.00,,2017-03-24 04:49:00,
2017-03-24 00:55:00,28.7,10.0,30.43,SSE,158,16.0,-999.0,45,0.00,,,0.00,,2017-03-24 04:55:00,
2017-03-24 01:00:00,28.7,10.0,30.43,South,180,16.0,-999.0,45,0.00,,,0.00,,2017-03-24 05:00:00,
2017-03-24 01:05:00,28.6,9.0,30.42,SSE,158,12.0,-999.0,45,0.00,,,0.00,,2017-03-24 05:05:00,
2017-03-24 01:11:00,28.6,10.0,30.42,SE,135,11.0,-999.0,45,0.00,,,0.00,,2017-03-24 05:11:00,
2017-03-24 01:16:00,28.6,9.0,30.42,SE,135,18.0,-999.0,45,0.00,,,0.00,,2017-03-24 05:16:00,
2017-03-24 01:21:00,28.6,9.0,30.42,SSE,158,11.0,22.0,45,0.00,,,0.00,,2017-03-24 05:21:00,
2017-03-24 01:26:00,28.6,9.0,30.41,South,180,11.0,-999.0,45,0.00,,,0.00,,2017-03-24 05:26:00,
2017-03-24 01:32:00,28.3,9.0,30.41,South,180,17.0,-999.0,45,0.00,,,0.00,,2017-03-24 05:32:00,
2017-03-24 01:37:00,28.3,9.0,30.41,SSW,203,14.0,-999.0,45,0.00,,,0.00,,2017-03-24 05:37:00,
2017-03-24 01:43:00,28.3,9.0,30.41,South,180,13.0,-999.0,45,0.00,,,0.00,,2017-03-24 05:43:00,
2017-03-24 01:54:00,28.3,10.0,30.39,SE,135,13.0,-999.0,45,0.00,,,0.00,,2017-03-24 05:54:00,
2017-03-24 01:59:00,28.6,9.0,30.39,South,180,18.0,-999.0,45,0.00,,,0.00,,2017-03-24 05:59:00,
2017-03-24 02:05:00,28.6,9.0,30.39,South,180,16.0,-999.0,45,0.00,,,0.00,,2017-03-24 06:05:00,
2017-03-24 02:11:00,28.6,9.0,30.38,SSE,158,17.0,-999.0,44,0.00,,,0.00,,2017-03-24 06:11:00,
2017-03-24 02:16:00,28.7,9.0,30.37,ESE,113,17.0,-999.0,44,0.00,,,0.00,,2017-03-24 06:16:00,
2017-03-24 02:21:00,28.6,9.0,30.37,SE,135,15.0,-999.0,45,0.00,,,0.00,,2017-03-24 06:21:00,
2017-03-24 02:27:00,28.3,9.0,30.37,SE,135,18.0,-999.0,45,0.00,,,0.00,,2017-03-24 06:27:00,
2017-03-24 02:32:00,28.3,9.0,30.37,South,180,16.0,-999.0,45,0.00,,,0.00,,2017-03-24 06:32:00,
2017-03-24 02:38:00,28.3,10.0,30.36,SE,135,16.0,-999.0,45,0.00,,,0.00,,2017-03-24 06:38:00,
2017-03-24 02:43:00,28.3,10.0,30.36,SE,135,19.0,-999.0,45,0.00,,,0.00,,2017-03-24 06:43:00,
2017-03-24 02:49:00,28.3,9.0,30.36,SSW,203,15.0,-999.0,45,0.00,,,0.00,,2017-03-24 06:49:00,
2017-03-24 02:54:00,28.3,9.0,30.35,South,180,11.0,-999.0,45,0.00,,,0.00,,2017-03-24 06:54:00,
2017-03-24 02:59:00,28.3,9.0,30.36,SSE,158,16.0,-999.0,45,0.00,,,0.00,,2017-03-24 06:59:00,
2017-03-24 03:04:00,28.3,9.0,30.35,SSW,203,14.0,-999.0,45,0.00,,,0.00,,2017-03-24 07:04:00,
2017-03-24 03:10:00,28.3,9.0,30.36,SSE,158,15.0,-999.0,45,0.00,,,0.00,,2017-03-24 07:10:00,
2017-03-24 03:15:00,28.6,9.0,30.36,South,180,20.0,-999.0,45,0.00,,,0.00,,2017-03-24 07:15:00,
2017-03-24 03:21:00,28.6,9.0,30.35,ESE,113,12.0,-999.0,45,0.00,,,0.00,,2017-03-24 07:21:00,
2017-03-24 03:26:00,28.6,9.0,30.34,SSE,158,16.0,-999.0,45,0.00,,,0.00,,2017-03-24 07:26:00,
2017-03-24 03:32:00,28.6,9.0,30.34,SE,135,17.0,-999.0,45,0.00,,,0.00,,2017-03-24 07:32:00,
2017-03-24 03:38:00,28.3,10.0,30.33,SSE,158,15.0,-999.0,45,0.00,,,0.00,,2017-03-24 07:38:00,
2017-03-24 03:43:00,28.3,10.0,30.33,SSE,158,18.0,-999.0,45,0.00,,,0.00,,2017-03-24 07:43:00,
2017-03-24 03:49:00,28.7,10.0,30.34,South,180,15.0,-999.0,45,0.00,,,0.00,,2017-03-24 07:49:00,
2017-03-24 03:55:00,28.8,10.0,30.33,SW,225,16.0,-999.0,45,0.00,,,0.00,,2017-03-24 07:55:00,
2017-03-24 04:00:00,28.8,10.0,30.33,SSW,203,13.0,-999.0,45,0.00,,,0.00,,2017-03-24 08:00:00,
2017-03-24 04:05:00,28.8,10.0,30.33,South,180,15.0,-999.0,45,0.00,,,0.00,,2017-03-24 08:05:00,
2017-03-24 04:10:00,28.8,11.0,30.32,SSE,158,8.0,-999.0,46,0.00,,,0.00,,2017-03-24 08:10:00,
2017-03-24 04:16:00,28.7,11.0,30.32,SSE,158,19.0,-999.0,46,0.00,,,0.00,,2017-03-24 08:16:00,
2017-03-24 04:22:00,28.8,11.0,30.32,SSW,203,20.0,-999.0,46,0.00,,,0.00,,2017-03-24 08:22:00,
2017-03-24 04:27:00,28.8,11.0,30.32,South,180,19.0,-999.0,46,0.00,,,0.00,,2017-03-24 08:27:00,
2017-03-24 04:33:00,29.2,11.0,30.32,South,180,16.0,-999.0,46,0.00,,,0.00,,2017-03-24 08:33:00,